Content
SEND FEEDBACK

Daily
Averages
Monthly
Summary
United States of America

BILOXI, MISSISSIPPI


Home > North America > United States > Mississippi
Elevation: 0 feet     Latitude: 30 24N     Longitude: 088 52W

WEATHER
 
SELECT A DAY
Number of Records: 225,535;   Date Range: 1/2/95 - 7/7/14
 
SHARE

PRINT THIS DATA

[ ← Previous Day ]
WEATHER ALMANAC - FEBRUARY 5, 2013
[ Next Day → ]
[ °C ]   °F
Weather ElementAverageHighLow
Temperature59.6 °F69.8 °F (2:18 pm)55.4 °F (10:53 pm)
Dewpoint57.1 °F60.8 °F (12:28 pm)55.4 °F (12:23 am)
Humidity92 %100 % (1:28 am)73 % (2:18 pm)
Barometer29.99 in30.06 in (11:58 pm)29.94 in (3:06 am)
Wind Speed4.5 mph12.7 mph (8:58 am)
Weather ElementAverage
Visibility6.4 mi
Wind DirectionENE (62.4 °)

Weather ElementTotal
Precipitation0.55 in
Heating Degree Days2.4 (Base 65)
Growing Degree Days12.6 (Base 50)
Averaged from 90 records on February 5, 2013
WEATHER CONDITIONS BREAKOUT
WIND DIRECTION BREAKOUT
WEATHER BY HOUR - FEBRUARY 5, 2013
[ °C ]   °F
Local TimeTemperatureDewpointHumidityBarometerVisibilityWind DirectionWind SpeedGust SpeedPrecipitationEventsConditions
12:23 AM57.2 °F55.4 °F94 %29.98 in4.0 miNE (50°)4.6 mphRainRain
12:28 AM57.2 °F55.4 °F94 %29.97 in4.0 miEast (80°)5.8 mphRainLight Rain
12:33 AM57.2 °F55.4 °F94 %29.98 in5.0 miENE (60°)3.5 mphRainLight Rain
12:38 AM57.2 °F55.4 °F94 %29.98 in6.0 miENE (70°)3.5 mphRainLight Rain
12:48 AM57.2 °F55.4 °F94 %29.97 in4.0 miEast (80°)5.8 mphRainLight Rain
12:53 AM57.2 °F55.4 °F94 %29.98 in4.0 miENE (60°)4.6 mphRainLight Rain
12:58 AM57.2 °F55.4 °F94 %29.99 in5.0 miENE (70°)4.6 mph0.13 inRainLight Rain
1:03 AM57.2 °F55.4 °F94 %29.97 in6.0 miEast (90°)3.5 mphRainLight Rain
1:13 AM57.2 °F55.4 °F94 %29.97 in8.0 miEast (90°)4.6 mphRainLight Rain
1:28 AM57.2 °F57.2 °F100 %29.97 in4.0 miEast (90°)5.8 mphRainLight Rain
1:33 AM57.2 °F57.2 °F100 %29.97 in2.5 miEast (90°)8.1 mphRainHeavy Rain
1:38 AM57.2 °F57.2 °F100 %29.97 in2.5 miEast (80°)5.8 mphRainHeavy Rain
1:43 AM57.2 °F55.4 °F94 %29.97 in3.0 miEast (90°)6.9 mphRainHeavy Rain
1:48 AM57.2 °F55.4 °F94 %29.97 in3.0 miEast (90°)8.1 mphRainHeavy Rain
1:53 AM57.2 °F55.4 °F94 %29.96 in2.5 miEast (100°)6.9 mphRainHeavy Rain
1:58 AM57.0 °F56.1 °F97 %29.97 in2.5 miEast (80°)9.2 mph0.32 inRainHeavy Rain
2:03 AM57.2 °F55.4 °F94 %29.95 in2.5 miEast (80°)10.4 mphRainRain
2:08 AM57.2 °F55.4 °F94 %29.95 in3.0 miEast (80°)9.2 mphRainLight Rain
2:13 AM57.2 °F55.4 °F94 %29.95 in6.0 miEast (80°)8.1 mphRainLight Rain
2:18 AM57.2 °F55.4 °F94 %29.95 in9.0 miEast (80°)10.4 mphRainLight Rain
2:23 AM57.2 °F55.4 °F94 %29.95 in10.0 miENE (70°)9.2 mphRainLight Rain
2:43 AM57.2 °F55.4 °F94 %29.95 in10.0 miEast (80°)8.1 mphRainLight Rain
2:58 AM57.0 °F56.1 °F97 %29.95 in10.0 miEast (90°)10.4 mph0.09 inRainLight Rain
3:06 AM57.2 °F55.4 °F94 %29.94 in10.0 miEast (80°)8.1 mphOvercast
3:16 AM57.2 °F55.4 °F94 %29.94 in10.0 miENE (70°)9.2 mphOvercast
3:58 AM57.2 °F55.8 °F95 %29.95 in10.0 miEast (90°)9.2 mph0.01 inOvercast
4:18 AM57.2 °F55.4 °F94 %29.94 in10.0 miEast (80°)8.1 mphOvercast
4:23 AM57.2 °F55.4 °F94 %29.94 in10.0 miEast (90°)10.4 mphOvercast
4:33 AM57.2 °F55.4 °F94 %29.94 in10.0 miEast (90°)10.4 mphOvercast
4:58 AM57.9 °F55.6 °F92 %29.95 in10.0 miEast (90°)8.1 mphOvercast
5:08 AM57.2 °F55.4 °F94 %29.94 in10.0 miEast (90°)6.9 mphOvercast
5:33 AM59.0 °F55.4 °F88 %29.95 in10.0 miEast (80°)6.9 mphOvercast
5:58 AM58.6 °F56.1 °F91 %29.97 in10.0 miENE (70°)5.8 mphOvercast
6:03 AM59.0 °F55.4 °F88 %29.96 in10.0 miEast (80°)6.9 mphRainLight Rain
6:13 AM59.0 °F57.2 °F94 %29.96 in10.0 miENE (70°)10.4 mphOvercast
6:28 AM59.0 °F57.2 °F94 %29.96 in10.0 miEast (80°)10.4 mphOvercast
6:58 AM58.6 °F56.7 °F93 %29.99 in10.0 miEast (80°)5.8 mph0.00 inOvercast
7:28 AM59.0 °F57.2 °F94 %29.98 in10.0 miENE (70°)9.2 mphOvercast
7:58 AM60.1 °F57.7 °F92 %30.00 in10.0 miEast (80°)10.4 mphOvercast
8:58 AM61.3 °F58.8 °F91 %30.01 in10.0 miEast (80°)12.7 mphOvercast
9:23 AM62.6 °F59.0 °F88 %30.00 in10.0 miEast (90°)12.7 mphOvercast
9:58 AM63.5 °F59.4 °F86 %30.02 in10.0 miEast (100°)10.4 mphOvercast
10:08 AM64.4 °F59.0 °F83 %30.01 in10.0 miESE (110°)9.2 mphOvercast
10:58 AM65.5 °F59.7 °F82 %30.02 in10.0 miNE (50°)5.8 mphOvercast
11:28 AM64.4 °F59.0 °F83 %30.01 in10.0 miEast (80°)4.6 mphOvercast
11:38 AM64.4 °F59.0 °F83 %30.01 in10.0 miENE (70°)4.6 mphOvercast
11:58 AM64.8 °F59.7 °F84 %30.01 in10.0 miNE (40°)4.6 mphOvercast
12:28 PM66.2 °F60.8 °F83 %29.99 in10.0 miNE (50°)5.8 mphOvercast
12:58 PM67.5 °F60.6 °F79 %29.99 in10.0 miNE (40°)5.8 mphOvercast
1:55 PM68.0 °F60.8 °F78 %29.97 in10.0 miVariable2.3 mphOvercast
1:58 PM68.0 °F60.8 °F78 %29.98 in10.0 miVariable2.3 mphOvercast
2:08 PM68.0 °F60.8 °F78 %29.97 in10.0 miEast (80°)3.5 mphOvercast
2:13 PM68.0 °F60.8 °F78 %29.97 in10.0 miNE (40°)2.3 mphMostly Cloudy
2:18 PM69.8 °F60.8 °F73 %29.96 in10.0 miVariable2.3 mphMostly Cloudy
2:23 PM69.8 °F60.8 °F73 %29.96 in10.0 miSSW (200°)1.2 mphMostly Cloudy
2:33 PM68.0 °F60.8 °F78 %29.96 in10.0 miSouth (190°)4.6 mphOvercast
2:38 PM68.0 °F60.8 °F78 %29.96 in10.0 miCalmMostly Cloudy
2:43 PM68.0 °F60.8 °F78 %29.96 in10.0 miSSW (210°)3.5 mphMostly Cloudy
2:58 PM66.7 °F60.8 °F81 %29.97 in10.0 miSW (230°)3.5 mphOvercast
3:58 PM65.7 °F60.4 °F83 %29.98 in10.0 miSSE (160°)2.3 mphOvercast
4:48 PM66.2 °F60.8 °F83 %29.97 in10.0 miSSE (150°)1.2 mphOvercast
4:58 PM65.5 °F60.6 °F84 %29.98 in10.0 miSouth (180°)2.3 mphOvercast
5:58 PM63.1 °F60.1 °F90 %29.98 in10.0 miCalmPartly Cloudy
6:58 PM61.0 °F59.2 °F94 %30.00 in10.0 miCalmPartly Cloudy
7:58 PM60.1 °F59.0 °F96 %30.02 in10.0 miCalmClear
8:58 PM58.3 °F57.4 °F97 %30.03 in10.0 miCalmClear
9:33 PM57.2 °F57.2 °F100 %30.03 in2.0 miCalmClear
9:38 PM57.2 °F57.2 °F100 %30.03 in3.0 miCalmClear
9:58 PM57.6 °F57.0 °F98 %30.04 in7.0 miCalm (350°)Clear
10:18 PM57.2 °F57.2 °F100 %30.03 in1.0 miCalmClear
10:23 PM57.2 °F57.2 °F100 %30.03 in0.8 miCalmClear
10:28 PM57.2 °F57.2 °F100 %30.03 in1.5 miCalmClear
10:33 PM57.2 °F55.4 °F94 %30.03 in1.5 miCalmClear
10:38 PM57.2 °F55.4 °F94 %30.03 in0.8 miCalmClear
10:43 PM57.2 °F55.4 °F94 %30.03 in0.8 miCalmClear
10:48 PM57.2 °F55.4 °F94 %30.03 in1.2 miCalmClear
10:53 PM55.4 °F55.4 °F100 %30.04 in3.0 miCalmClear
10:58 PM55.4 °F55.4 °F100 %30.05 in1.2 miCalmClear
11:03 PM55.4 °F55.4 °F100 %30.04 in0.5 miCalmFogFog
11:08 PM55.4 °F55.4 °F100 %30.04 in0.8 miCalmClear
11:13 PM55.4 °F55.4 °F100 %30.04 in1.0 miCalmClear
11:18 PM55.4 °F55.4 °F100 %30.04 in1.5 miCalmClear
11:23 PM55.4 °F55.4 °F100 %30.04 in0.8 miCalmMist
11:28 PM55.4 °F55.4 °F100 %30.04 in0.2 miCalmFogFog
11:33 PM55.4 °F55.4 °F100 %30.04 in0.5 miCalmFogFog
11:38 PM55.4 °F55.4 °F100 %30.04 in1.2 miCalmMostly Cloudy
11:43 PM57.2 °F55.4 °F94 %30.04 in0.8 miCalmMist
11:48 PM55.4 °F55.4 °F100 %30.05 in0.5 miCalmFogFog
11:53 PM55.4 °F55.4 °F100 %30.05 in0.2 miCalmFogFog
11:58 PM56.1 °F55.6 °F98 %30.06 in0.2 miCalmFogFog
Hourly data recorded from KBIX, located miles away from Biloxi, Mississippi







STORIES FROM OUR PARTNERS